Location: Manchester NH
(43.0000°N, 71.5000°W)
Time: 01:56:31
(UTC-05:00)

X-37B - Visible Passes

Search period start: 27 January 2022 00:00
Search period end: 06 February 2022 00:00
Orbit: 334 x 337 km, 45.0° (Epoch: 11 January)

Date Brightness Start Highest point End Pass type
(mag) Time Alt. Az. Time Alt. Az. Time Alt. Az.
27 Jan 1.5 18:42:44 10° WSW 18:44:42 38° SW 18:44:42 38° SW visible
28 Jan 1.8 17:28:12 10° SSW 17:30:39 26° SSE 17:33:06 10° E visible
28 Jan 2.8 19:03:08 10° W 19:04:24 23° W 19:04:24 23° W visible
29 Jan 0.5 17:48:10 10° WSW 17:50:57 60° SSE 17:52:49 19° E visible
29 Jan 3.8 19:23:41 10° W 19:24:02 13° W 19:24:02 13° W visible
30 Jan 0.3 18:08:33 10° W 18:11:24 74° NNW 18:12:26 35° ENE visible
31 Jan 0.5 18:29:07 10° W 18:31:55 54° N 18:32:02 53° N visible
01 Feb 1.7 18:49:40 10° WNW 18:51:37 37° NW 18:51:37 37° NW visible
02 Feb 0.6 17:34:33 10° W 17:37:20 54° N 17:40:01 11° ENE visible
02 Feb 2.9 19:10:08 10° WNW 19:11:15 21° WNW 19:11:15 21° WNW visible
03 Feb 0.5 17:55:05 10° WNW 17:57:53 55° N 17:59:40 19° ENE visible
03 Feb 3.9 19:30:36 10° W 19:30:54 12° W 19:30:54 12° W visible
04 Feb 0.2 18:15:34 10° WNW 18:18:24 77° NNE 18:19:23 36° E visible
05 Feb 0.7 18:36:02 10° WNW 18:38:50 55° SSW 18:39:12 50° SSE visible
